This is the latest recevied weather packets stored in our database for station/object N5PA. If no packets are shown the sender has not sent any weather packets the latest 10 day(s).
| Time | Temp. | Humidity | Pressure | Rain* | Wind** | Luminosity | Snow |
|---|---|---|---|---|---|---|---|
| 1777506605 | 18.89° C | 41% | 1014 hPa | 3.81 mm | - | 998 W/m² | - |
| 1777506305 | 18.89° C | 41% | 1013.2 hPa | 3.81 mm | - | 1013 W/m² | - |
| 1777506006 | 18.89° C | 42% | 1013.5 hPa | 3.56 mm | - | 1005 W/m² | - |
| 1777505706 | 18.89° C | 42% | 1013 hPa | 3.56 mm | - | 997 W/m² | - |
| 1777505405 | 18.89° C | 42% | 1012.5 hPa | 3.56 mm | - | 1000 W/m² | - |
| 1777505104 | 18.89° C | 42% | 1011.7 hPa | 3.56 mm | - | 997 W/m² | - |
| 1777504806 | 18.89° C | 43% | 1012.3 hPa | 3.05 mm | - | 1002 W/m² | - |
| 1777504506 | 18.89° C | 43% | 1012.4 hPa | 2.54 mm | - | 1004 W/m² | - |
| 1777504205 | 18.33° C | 44% | 1011.7 hPa | 2.29 mm | - | 1004 W/m² | - |
| 1777503907 | 18.33° C | 44% | 1012 hPa | 2.29 mm | - | 1004 W/m² | - |
| 1777503607 | 18.89° C | 44% | 1012.6 hPa | 2.03 mm | - | 998 W/m² | - |
| 1777503306 | 18.33° C | 44% | 1013 hPa | 1.78 mm | - | 1013 W/m² | - |
| 1777503006 | 18.89° C | 45% | 1013 hPa | 1.52 mm | - | 1011 W/m² | - |
| 1777502706 | 18.89° C | 44% | 1012.5 hPa | 1.52 mm | - | 1013 W/m² | - |
| 1777502406 | 18.89° C | 45% | 1013 hPa | 1.27 mm | - | 1002 W/m² | - |
| 1777502105 | 18.89° C | 45% | 1012.9 hPa | 1.27 mm | - | 997 W/m² | - |
| 1777501805 | 18.89° C | 45% | 1012.8 hPa | 1.27 mm | - | 1009 W/m² | - |
| 1777501505 | 18.89° C | 45% | 1012.5 hPa | 1.27 mm | - | 998 W/m² | - |
| 1777501205 | 18.33° C | 46% | 1012 hPa | 1.78 mm | - | 1005 W/m² | - |
| 1777500906 | 18.33° C | 47% | 1011.4 hPa | 2.29 mm | - | 1013 W/m² | - |
| 1777500606 | 18.33° C | 47% | 1011.5 hPa | 2.54 mm | - | 1013 W/m² | - |
| 1777500306 | 18.89° C | 47% | 1011.9 hPa | 2.54 mm | - | 1005 W/m² | - |
| 1777500005 | 18.33° C | 48% | 1011.6 hPa | 3.56 mm | - | 1005 W/m² | - |
| 1777499705 | 18.33° C | 48% | 1011.1 hPa | 6.1 mm | - | 1009 W/m² | - |
| 1777499404 | 18.33° C | 48% | 1010.9 hPa | 7.87 mm | - | 1002 W/m² | - |
* Rain latest hour (hover to see other rain measurements)
** Current wind speed in m/s (hover to see current wind gust speed)